Casablanca, Morocco

10:50 AM WEST on July 26, 2017 (GMT +0100)
Casablanca

Weather History for GMMC - March, 2014

Change the Weather History Date:

Friday, March 7, 2014

  Actual Average (GMMN) Record (GMMN)
Temperature  
Mean Temperature 59 °F -  
Max Temperature 72 °F 69 °F 82 °F (2014)
Min Temperature 46 °F 47 °F 37 °F (2005)
Degree Days  
Heating Degree Days 6    
Growing Degree Days 9 (Base 50)    
Moisture  
Dew Point 54 °F    
Average Humidity 80    
Maximum Humidity 100    
Minimum Humidity 54    
Precipitation  
Precipitation 0.00 in 0.06 in - ()
Sea Level Pressure  
Sea Level Pressure 29.95 in    
Wind  
Wind Speed 2 mph ()    
Max Wind Speed 5 mph    
Max Gust Speed -    
Visibility 4.8 miles    
Events      
Averages and records for this station are not official NWS values.
T = Trace of Precipitation, MM = Missing Value Source: Averaged Metar Reports

Daily Weather History Graph

Daily Weather History Graph

Search for Another Location

Airport or City:

Trip Planner

Search our weather history database for the weather conditions in past years. The results will help you decide how hot, cold, wet, or windy it might be!

Date:

Astronomy

Mar. 07, 2014 Rise Set
Actual Time 6:51 AM WET 6:32 PM WET
Civil Twilight 6:26 AM WET 6:56 PM WET
Nautical Twilight 5:58 AM WET 7:25 PM WET
Astronomical Twilight 5:29 AM WET 7:54 PM WET
Moon 10:51 AM WET (3/7) 12:07 AM WET (3/7)
Length of Visible Light 12h 30m
Length of Day
11h 40m
Waxing Crescent, 40% of the Moon is Illuminated
Mar 7
Waxing Crescent
Mar 8
First Quarter
Mar 16
Full
Mar 24
Last Quarter
Mar 30
New

Hourly Weather History & Observations

Time (WET) Temp. Dew Point Humidity Pressure Visibility Wind Dir Wind Speed Gust Speed Precip Events Conditions
12:00 AM 56 °F 54 °F 89% 30.03 in 6 mi Calm Calm - -  
12:00 AM 55.4 °F 53.6 °F 94% 30.01 in - Calm Calm - N/A   Clear
1:00 AM 53.6 °F 53.6 °F 100% 30.01 in - SSE 2.3 mph - N/A   Clear
2:00 AM 51.8 °F 51.8 °F 100% 30.01 in - ESE 2.3 mph - N/A   Clear
3:00 AM 52 °F 50 °F 92% 30.02 in 6 mi South 2.3 mph - -  
3:00 AM 51.8 °F 50.0 °F 94% 30.01 in - South 2.3 mph - N/A   Clear
4:00 AM 51.8 °F 50.0 °F 94% 30.01 in - SSW 2.3 mph - N/A   Clear
5:00 AM 50.0 °F 48.2 °F 94% 30.01 in - SSW 2.3 mph - N/A   Clear
6:00 AM 47 °F 46 °F 94% 30.00 in 6 mi SSW 2.3 mph - -   Clear
6:00 AM 48.2 °F 46.4 °F 93% 29.98 in - SSW 2.3 mph - N/A   Clear
7:00 AM 46.4 °F 44.6 °F 93% 29.98 in 3.7 mi South 2.3 mph - N/A   Unknown
8:00 AM 51.8 °F 48.2 °F 88% 30.01 in 3.1 mi South 2.3 mph - N/A   Unknown
9:00 AM 57 °F 50 °F 70% 30.02 in 3 mi SSE 2.3 mph - -  
9:00 AM 57.2 °F 50.0 °F 77% 30.01 in 3.1 mi SSE 2.3 mph - N/A   Unknown
10:00 AM 60.8 °F 51.8 °F 72% 29.98 in 3.1 mi ENE 4.6 mph - N/A   Unknown
11:00 AM 66.2 °F 51.8 °F 60% 29.95 in 5.0 mi East 2.3 mph - N/A   Unknown
12:00 PM 67 °F 54 °F 55% 29.97 in 6 mi NNE 4.6 mph - -  
12:00 PM 68.0 °F 55.4 °F 64% 29.95 in - NNE 4.6 mph - N/A   Clear
1:00 PM 68.0 °F 55.4 °F 64% 29.92 in - North 4.6 mph - N/A   Clear
2:00 PM 68.0 °F 57.2 °F 68% 29.89 in - North 4.6 mph - N/A   Clear
3:00 PM 70 °F 58 °F 56% 29.92 in 6 mi East 3.5 mph - -  
3:00 PM 69.8 °F 57.2 °F 64% 29.89 in - East 3.5 mph - N/A   Clear
4:00 PM 71.6 °F 59.0 °F 64% 29.86 in - NE 4.6 mph - N/A   Clear
5:00 PM 71.6 °F 57.2 °F 60% 29.86 in - NE 3.5 mph - N/A   Clear
6:00 PM 70 °F 57 °F 54% 29.90 in 6 mi NNE 3.5 mph - -  
6:00 PM 69.8 °F 57.2 °F 64% 29.86 in - NNE 3.5 mph - N/A   Clear
7:00 PM 64.4 °F 59.0 °F 83% 29.89 in - NE 2.3 mph - N/A   Clear
8:00 PM 62.6 °F 60.8 °F 94% 29.89 in - Calm Calm - N/A   Clear
9:00 PM 62 °F 59 °F 85% 29.93 in 6 mi North 2.3 mph - -  
9:00 PM 62.6 °F 59.0 °F 88% 29.92 in - North 2.3 mph - N/A   Clear
10:00 PM 60.8 °F 59.0 °F 94% 29.92 in - South 2.3 mph - N/A   Clear
11:00 PM 59.0 °F 55.4 °F 88% 29.92 in - South 2.3 mph - N/A   Clear